ECMWFFLT1_925_thetae_057.txt.gz
Theta_e
324 324 324 325 326 326 325 324 324 323 322 321 322 323 324 324 323 322 323 324 325 325 324 325 326 326 326 326 327 328 328 327 327 327 328 328 328 328 329 329 329 329 329 328 328 328 328 328 327 327 327 328 329 328 328 328 328 328 328 328 327 327 327
324 324 325 326 326 325 324 324 323 322 321 319 319 321 322 323 322 321 323 324 324 324 323 323 323 324 325 325 326 327 327 326 327 327 327 328 328 327 328 328 328 328 328 328 327 327 326 327 328 327 326 327 328 328 327 326 327 328 327 327 327 327 326
324 325 325 325 325 325 324 323 322 320 320 319 319 320 321 321 321 321 322 323 322 320 321 321 321 322 324 324 324 325 325 325 326 325 325 325 325 326 327 327 327 327 327 328 327 326 325 325 327 326 325 326 326 327 326 326 326 326 325 324 324 324 325
325 325 324 324 325 325 324 322 321 319 320 320 320 319 320 320 320 321 321 321 320 320 321 321 321 322 323 323 323 324 324 323 323 322 321 319 319 322 324 324 325 326 326 327 327 327 325 324 326 326 325 325 326 326 326 324 324 323 322 321 320 322 323
324 324 324 324 324 324 323 322 320 319 319 320 320 319 319 319 320 320 321 320 320 320 320 320 321 322 321 321 321 322 323 322 320 319 317 316 316 317 318 318 320 322 325 327 327 327 325 324 325 324 324 324 324 325 325 324 324 322 320 319 319 320 321
324 324 324 324 323 322 322 322 320 319 318 318 318 318 318 318 319 320 320 319 319 319 319 319 320 320 320 320 320 320 320 320 318 316 315 315 315 315 316 316 316 319 324 327 327 326 325 325 324 323 324 323 322 323 324 325 324 322 319 318 318 319 319
324 324 324 324 323 322 322 321 320 318 318 317 318 317 317 316 317 318 319 319 318 318 318 319 319 318 318 317 317 317 318 317 316 315 315 315 315 315 315 315 316 318 321 325 326 325 325 324 323 324 324 322 320 321 321 322 321 320 318 318 318 318 317
324 323 324 324 323 323 322 320 319 318 318 318 319 318 316 315 316 316 317 318 317 316 316 317 316 315 315 316 316 316 316 316 316 316 316 315 315 315 315 315 316 316 317 320 322 324 324 323 323 323 322 322 321 318 317 318 318 318 318 318 317 316 315
324 324 324 323 323 323 321 320 319 318 318 319 319 317 316 315 315 315 315 316 316 315 315 315 315 315 315 315 316 316 315 316 316 316 316 315 314 313 313 314 315 316 316 316 317 320 322 321 322 322 320 321 319 316 316 316 315 317 317 317 316 314 312
324 324 323 324 323 322 321 320 319 318 318 319 318 317 316 316 315 316 316 316 316 316 315 315 314 314 314 314 315 315 315 316 316 316 315 315 314 313 313 312 313 315 315 315 315 316 316 316 317 319 319 318 315 316 318 317 314 314 316 315 315 314 312
324 324 324 323 322 321 321 320 319 319 319 318 318 316 317 318 317 316 316 316 316 316 316 316 315 315 315 316 316 316 316 315 315 315 316 316 316 316 315 314 313 314 314 314 314 315 314 314 315 316 317 317 314 314 317 318 315 313 314 314 313 313 313
323 324 324 322 321 320 321 320 319 319 319 318 318 317 318 319 318 316 317 317 317 317 317 316 316 317 317 317 316 316 316 315 315 316 315 315 315 317 316 315 314 313 313 313 314 314 314 314 314 315 316 316 315 313 312 314 315 312 312 313 312 310 311
324 324 323 321 320 321 321 320 319 319 319 319 318 318 319 319 318 319 319 319 317 317 317 317 317 317 317 317 316 317 316 316 316 317 316 314 314 315 315 315 314 313 313 313 313 314 314 314 314 314 316 316 314 313 312 311 312 311 310 311 311 310 310
325 324 323 321 321 322 321 320 319 319 319 319 319 319 319 319 320 320 320 319 319 319 319 319 319 319 318 317 318 318 317 316 316 317 316 315 314 314 313 313 314 314 314 313 313 314 314 314 314 314 315 316 314 313 313 312 310 309 309 309 309 310 309
326 324 323 321 321 323 322 320 320 319 319 320 320 320 320 320 320 321 321 320 320 321 321 320 321 321 319 319 320 320 319 317 317 317 316 316 316 315 314 313 313 314 315 314 314 315 314 313 313 313 314 315 314 313 313 312 310 309 309 309 309 309 309
326 325 325 322 322 323 322 321 320 319 320 321 321 321 320 320 321 321 321 321 321 322 321 321 322 322 321 321 321 322 321 319 319 320 318 317 317 317 317 317 316 316 316 316 316 316 315 314 314 313 314 314 315 315 314 312 311 310 310 310 309 309 310
324 324 323 321 322 323 322 322 321 319 320 320 320 320 320 321 321 321 321 322 322 322 322 322 323 323 322 323 323 323 322 322 322 322 321 319 319 319 319 319 319 319 318 318 318 317 315 315 315 315 315 316 317 317 316 315 314 312 310 310 311 312 312
325 322 319 317 319 321 321 321 321 319 319 320 320 320 321 321 322 322 322 322 322 322 323 323 324 324 324 324 324 323 323 323 322 322 322 321 321 321 321 321 320 320 320 320 320 319 317 316 316 315 316 316 316 317 317 317 316 314 313 312 312 313 313
325 321 319 319 319 319 318 320 320 319 319 320 320 321 321 321 321 322 321 321 321 321 321 323 324 324 324 324 324 323 322 322 322 322 322 322 321 321 321 322 322 321 321 321 320 320 319 318 316 315 315 315 316 316 317 317 318 317 316 315 314 314 314
325 322 321 322 322 320 318 318 319 319 320 320 320 320 321 320 321 322 321 320 320 319 321 322 323 323 323 324 324 323 322 321 322 322 322 321 320 320 321 321 321 321 321 321 321 320 320 319 318 317 316 316 316 316 315 316 317 317 317 316 316 315 316
325 323 322 323 323 323 321 318 318 319 321 321 321 321 321 321 321 321 321 320 319 319 320 320 321 322 323 322 322 323 322 320 321 321 321 321 320 320 320 321 321 321 321 321 321 321 321 320 319 318 318 317 317 316 316 316 316 316 316 316 315 315 315
324 322 322 323 324 325 324 321 320 320 321 321 321 321 321 321 321 321 320 320 320 320 320 319 319 321 321 321 321 321 321 320 319 319 320 321 321 320 320 320 320 321 321 321 320 320 321 320 320 319 319 317 317 317 317 317 316 316 315 315 315 315 315
324 322 322 323 323 324 324 323 322 321 321 321 321 321 321 321 321 321 321 321 320 320 319 319 319 320 321 321 321 321 321 320 319 319 320 321 321 320 320 320 321 322 322 321 321 320 321 320 320 320 319 318 317 318 318 318 317 316 315 314 314 314 315
323 323 323 324 323 323 324 323 322 321 321 321 321 321 321 321 321 321 321 321 321 320 319 319 319 320 321 322 322 321 320 319 318 319 320 319 320 321 321 321 321 320 320 320 320 320 320 319 318 318 318 317 317 318 318 318 317 316 315 314 314 313 313
323 323 324 324 323 323 323 323 322 322 321 321 321 321 321 321 321 321 320 320 320 320 319 318 318 320 321 321 321 320 319 319 318 318 318 318 319 321 322 322 321 319 319 319 318 317 317 315 314 313 313 314 316 317 317 317 316 316 315 314 312 312 312
323 323 324 324 322 322 323 323 322 322 322 322 321 320 321 321 321 321 320 320 319 319 318 319 319 320 320 320 320 319 319 319 317 317 318 319 320 321 321 321 321 321 320 318 317 317 317 314 313 312 310 311 314 315 316 316 316 315 315 314 312 311 311
322 322 323 322 322 322 322 322 322 322 322 322 322 321 321 321 320 320 319 319 318 318 318 320 320 320 319 319 319 318 318 317 317 317 319 319 320 321 321 321 322 320 317 316 317 318 317 315 314 313 311 311 311 311 312 312 313 313 314 314 313 311 311
321 322 322 322 322 322 322 321 322 322 321 322 322 321 321 320 319 318 319 319 318 319 320 320 319 318 318 318 317 316 316 317 317 317 317 318 319 318 319 321 321 318 316 316 316 316 316 316 316 314 312 312 311 310 310 308 308 310 310 311 311 310 310
321 321 322 323 323 322 322 322 321 321 321 321 320 320 320 320 319 319 320 319 319 319 319 318 316 316 317 316 313 312 314 315 316 316 316 316 316 316 317 319 319 318 317 316 314 313 313 314 314 314 313 313 312 311 310 309 307 308 308 309 308 308 307
320 321 322 323 322 321 322 322 321 321 320 320 320 320 320 319 319 320 320 318 317 317 316 314 313 312 312 310 309 311 314 315 315 315 315 315 316 315 316 317 317 316 315 314 312 312 311 311 312 311 312 312 312 311 309 308 307 306 306 306 306 305 305
316 317 320 321 321 321 321 321 321 321 320 320 320 320 320 319 318 319 318 316 314 314 312 310 308 306 305 305 307 312 314 315 315 315 314 315 314 312 313 315 315 314 312 310 309 308 307 307 307 308 310 312 311 310 308 308 307 306 305 304 304 304 304
310 312 314 316 317 319 319 319 319 319 319 318 318 318 319 319 317 317 317 315 313 313 310 306 304 302 302 305 309 312 313 314 314 314 313 313 311 308 310 312 312 312 311 307 304 303 302 304 305 307 309 311 310 309 308 307 306 306 306 305 304 303 302
308 308 310 310 312 314 315 316 316 318 318 317 316 317 318 318 318 317 316 315 314 312 308 304 302 301 303 307 310 311 311 313 314 313 312 312 310 307 307 308 309 309 307 303 301 301 301 303 306 307 308 309 309 309 308 307 306 306 305 304 303 302 301
306 307 308 308 309 311 312 312 313 315 315 315 315 316 316 317 317 317 316 315 314 311 306 303 302 301 302 304 306 307 309 312 312 313 312 311 310 307 305 307 308 306 303 301 301 301 301 302 305 305 305 305 306 305 306 306 305 304 303 303 302 301 300
304 306 306 307 308 309 309 311 311 312 311 312 313 313 313 314 315 316 316 315 313 312 308 304 303 302 301 302 302 304 308 310 310 312 312 311 310 308 306 306 306 303 302 302 302 301 301 302 303 304 304 303 303 302 301 300 300 300 300 300 300 299 299
303 303 304 305 306 306 307 308 310 311 311 311 311 311 311 311 312 314 314 313 312 313 311 309 307 305 303 302 301 302 306 308 308 309 311 311 310 309 307 306 304 303 303 303 302 302 303 303 304 305 304 303 303 301 298 297 297 298 299 299 299 299 299
302 302 302 303 303 303 304 306 307 309 310 311 312 312 311 310 310 312 312 311 311 312 312 311 310 309 306 304 301 300 304 306 305 306 309 310 310 310 308 305 304 304 304 304 304 304 304 305 305 305 304 303 302 299 297 297 298 299 299 298 298 298 298

ECMWFFLT1_925_thetae_060.txt.gz
Theta_e
326 327 328 328 327 327 327 327 328 327 325 324 325 325 325 325 325 325 325 326 325 326 325 325 326 327 327 327 327 327 327 328 328 329 329 329 329 329 329 329 329 328 327 327 327 327 328 328 327 326 327 328 328 327 327 327 327 327 327 327 327 326 326
326 326 326 326 326 324 325 327 327 326 324 324 324 324 323 323 324 324 325 325 325 325 325 324 325 326 327 327 327 327 327 327 327 328 328 328 329 329 329 328 328 327 327 327 326 326 326 327 328 326 325 327 327 327 327 327 327 327 327 327 326 326 325
327 326 326 326 325 324 324 324 324 323 323 323 324 323 322 322 323 324 324 323 323 323 323 324 324 325 326 327 326 326 327 327 327 327 327 328 328 328 328 328 328 327 327 326 325 325 325 325 326 325 325 326 326 326 327 327 327 326 325 325 325 325 325
326 325 326 325 324 323 322 321 320 320 320 321 322 322 321 322 323 323 321 321 320 320 321 323 324 324 324 325 325 324 324 323 322 323 324 326 327 327 327 327 327 327 327 326 325 325 324 323 325 325 324 325 326 326 327 326 324 322 322 323 323 324 324
324 325 325 324 324 323 322 320 319 319 319 319 320 321 321 322 322 321 319 320 320 320 321 322 323 323 323 323 322 320 319 317 316 317 319 320 322 323 324 325 326 326 327 327 326 325 325 324 325 324 323 325 325 326 325 323 321 320 320 321 321 321 321
324 325 325 324 323 322 321 320 319 319 320 319 320 320 320 321 321 320 319 320 320 320 322 322 321 322 323 323 321 317 316 316 315 316 316 316 317 318 320 322 325 326 326 327 326 325 325 325 324 323 323 324 324 325 325 324 322 319 317 317 318 318 318
325 326 325 324 323 322 320 320 319 320 320 319 319 319 320 320 320 319 319 320 319 319 320 320 320 320 320 321 320 316 315 315 315 315 315 315 316 317 320 322 325 326 326 326 326 325 324 324 324 323 322 323 323 324 324 323 321 317 316 316 315 315 314
325 324 324 324 323 322 321 320 320 320 319 318 318 319 319 320 319 319 319 319 318 318 318 318 317 316 317 319 318 315 315 315 314 315 315 315 316 317 318 321 324 325 326 326 326 324 324 324 324 323 322 322 322 321 319 319 318 317 316 315 314 313 311
324 323 324 324 323 322 321 320 319 318 318 318 317 318 318 319 319 318 318 318 318 318 316 315 315 314 314 316 316 315 315 314 314 314 314 315 315 316 316 317 319 320 323 325 325 323 323 322 323 323 322 322 321 318 317 317 316 316 316 315 314 313 310
323 323 324 323 322 322 322 321 319 317 317 317 316 316 316 318 319 317 316 317 317 316 314 313 315 315 314 315 315 315 314 314 313 313 313 313 314 314 315 315 314 314 318 322 324 323 322 322 322 322 322 321 319 318 318 319 317 315 316 315 314 313 311
323 323 323 323 322 321 321 319 318 317 317 317 316 315 315 316 317 317 315 315 315 314 313 314 315 315 314 314 315 315 314 313 313 313 313 312 312 313 314 314 313 313 315 317 320 320 320 321 321 321 321 321 319 317 317 318 317 315 315 315 313 312 310
323 324 323 323 322 321 320 318 317 318 319 318 316 315 314 315 316 316 316 315 314 314 314 314 314 314 314 313 314 315 314 314 314 315 315 313 312 313 314 314 313 313 313 314 315 316 316 316 317 318 320 320 319 318 316 316 316 315 314 314 311 309 309
323 323 323 323 322 321 319 318 318 318 319 317 315 315 315 316 316 316 315 315 315 314 314 314 315 315 315 314 314 315 314 314 315 315 316 315 314 313 313 314 313 313 313 314 314 314 314 315 315 316 319 319 317 317 316 314 313 313 314 312 310 309 309
323 323 323 322 321 320 319 318 318 318 318 316 316 316 316 316 316 316 316 316 316 316 316 316 316 316 315 315 315 315 315 315 314 313 315 315 315 314 313 313 313 313 313 313 314 314 314 315 315 316 317 317 315 315 315 313 311 311 312 311 310 309 309
324 323 323 321 321 320 319 318 318 319 318 317 317 318 317 316 316 317 317 316 316 316 316 317 317 316 316 316 316 316 316 316 315 314 314 314 314 313 313 313 314 314 314 314 314 314 314 315 315 315 314 314 313 312 312 312 310 309 310 310 310 309 309
323 323 322 321 320 320 319 319 319 318 318 317 318 319 318 318 319 318 317 317 318 317 317 318 317 317 318 318 317 315 316 316 315 315 315 315 314 313 313 313 314 315 315 314 314 313 314 315 315 314 313 312 312 311 311 311 310 309 309 309 310 310 309
322 322 322 321 321 320 319 319 319 318 318 318 319 319 319 320 320 319 318 319 320 319 320 320 319 318 320 320 318 316 316 317 316 316 316 316 316 316 315 314 315 316 316 315 314 314 314 314 315 314 313 313 312 312 311 310 309 309 309 309 309 309 309
322 322 322 323 321 320 320 319 319 319 319 319 320 320 320 320 320 320 319 321 321 321 321 321 320 319 320 321 320 318 318 319 319 318 317 317 317 318 318 317 317 318 318 316 315 315 314 315 315 316 316 316 315 314 312 312 310 309 309 309 309 311 310
323 323 323 322 322 322 320 320 320 319 319 320 320 320 320 320 320 321 321 321 321 322 322 322 322 321 321 322 321 321 320 321 321 320 319 318 319 319 319 319 319 319 319 318 317 316 316 315 315 316 317 317 317 316 315 315 313 311 310 310 310 312 313
323 323 320 320 322 321 316 317 320 320 320 320 320 320 320 321 321 321 321 322 322 322 323 323 323 323 323 323 322 322 322 321 322 322 321 321 321 321 320 320 320 320 320 320 319 318 317 316 315 315 316 316 317 317 317 317 315 313 312 313 312 313 314
322 319 316 316 318 315 311 315 320 320 319 319 320 321 321 321 322 321 321 322 322 322 323 323 323 323 323 324 323 323 322 321 321 321 322 321 321 320 320 321 321 321 320 320 320 320 319 318 316 315 315 316 316 316 317 317 316 315 315 315 314 314 315
322 319 317 318 318 316 315 318 321 319 319 319 320 321 321 320 321 321 321 321 320 321 321 322 323 323 323 323 323 323 322 322 321 320 321 321 321 320 320 320 321 320 320 321 320 320 320 319 317 316 316 316 316 316 316 316 316 315 315 314 314 315 315
324 321 320 321 321 320 319 319 320 319 319 319 320 320 321 320 320 321 321 320 319 319 319 320 321 322 321 322 323 322 321 321 321 320 319 320 320 320 320 320 321 320 320 321 320 321 320 320 319 318 317 317 316 316 317 317 316 315 314 314 314 314 314
325 323 322 322 322 322 321 319 319 320 320 320 321 320 321 321 320 320 321 320 319 319 319 320 320 319 319 320 321 321 321 320 320 319 319 319 320 321 320 320 321 321 321 321 320 320 320 320 320 319 318 317 317 317 317 317 317 316 315 314 314 314 313
325 324 322 322 323 324 322 321 320 320 321 321 321 321 321 321 321 321 320 320 320 320 320 319 319 318 318 319 320 321 321 320 319 319 318 319 320 320 320 320 321 321 321 321 320 320 320 320 319 318 317 316 316 317 317 317 317 316 315 314 313 313 313
323 323 322 322 323 324 323 322 321 321 321 321 321 321 321 321 321 321 321 320 320 320 320 319 318 318 318 318 320 321 321 319 319 318 317 318 320 320 321 321 321 320 320 319 319 318 317 316 314 312 312 312 313 314 316 316 316 316 315 315 314 313 312
322 322 322 322 323 323 323 322 322 321 321 321 321 321 321 321 321 321 321 321 320 320 320 319 318 317 317 317 319 319 319 319 318 318 317 317 319 321 321 321 320 319 318 317 316 316 314 313 311 309 308 309 310 311 312 313 314 314 315 315 314 313 312
322 322 323 323 323 323 322 322 322 322 322 321 321 321 321 321 321 321 321 320 320 319 319 318 317 317 318 318 319 319 319 319 318 318 317 318 320 321 321 321 320 319 318 317 316 315 314 313 312 310 309 309 309 309 308 308 309 310 311 311 312 312 311
321 321 321 321 321 321 321 322 321 321 321 321 322 321 321 321 321 320 320 320 319 319 318 317 318 319 318 319 319 318 318 318 318 318 318 319 320 321 321 321 320 318 317 317 317 316 315 314 313 312 311 310 310 309 308 307 307 308 308 309 309 309 308
319 320 321 321 321 321 321 321 321 321 321 321 322 322 322 321 320 320 319 319 319 318 318 318 319 319 319 319 317 315 315 317 317 317 318 318 319 320 321 321 319 316 316 316 316 315 314 314 313 313 312 311 310 309 308 307 307 307 307 307 306 306 305
311 313 315 318 320 321 322 321 321 321 321 321 321 321 320 320 319 319 319 319 319 318 318 319 318 317 318 317 314 312 314 316 316 316 316 316 317 318 319 319 318 316 315 314 313 312 311 311 312 312 312 311 310 308 307 307 306 306 305 305 304 304 303
304 305 306 308 312 315 318 320 321 321 321 320 320 320 320 319 319 318 318 319 319 318 318 318 316 315 314 312 310 311 315 315 315 316 315 316 316 317 317 317 316 316 314 312 309 307 307 307 307 308 310 310 309 308 307 307 306 305 305 304 303 302 301
302 303 303 304 305 306 308 312 316 320 321 321 320 320 320 319 318 318 318 318 317 317 317 316 313 312 309 306 306 311 315 315 315 315 314 315 315 316 316 315 314 313 312 307 303 301 301 302 302 304 308 310 309 308 307 306 306 306 305 304 302 301 300
302 302 302 303 305 305 305 306 308 312 316 319 320 320 319 319 318 317 317 317 315 315 315 314 312 310 306 302 304 309 313 314 314 314 313 313 313 313 313 313 312 312 309 304 300 300 300 300 302 305 308 309 309 308 307 306 305 304 303 302 301 300 299
301 302 302 302 303 304 304 304 304 305 306 310 314 317 319 319 319 318 317 316 314 313 313 312 310 307 303 301 304 308 311 312 313 314 313 312 311 310 309 310 311 310 306 302 300 301 301 301 303 305 306 306 306 306 305 303 302 301 301 300 300 298 298
300 301 301 301 301 302 302 302 302 303 303 304 306 310 313 315 316 317 318 317 315 314 313 310 307 304 302 301 303 306 309 310 311 313 313 312 311 309 307 308 309 307 303 301 302 302 301 302 303 304 304 303 303 303 302 300 298 298 299 299 298 298 297
299 299 299 300 300 301 301 301 301 301 302 302 303 305 308 310 312 313 314 316 316 315 315 312 306 302 301 301 301 303 304 305 308 311 313 312 312 309 307 307 307 305 302 302 302 302 302 303 304 303 303 303 302 301 299 298 298 298 298 298 298 297 297

ECMWFFLT1_925_thetae_063.txt.gz
Theta_e
329 329 328 328 328 327 327 327 326 326 326 325 325 324 325 325 325 326 326 325 325 325 325 326 326 326 326 327 327 327 328 328 329 329 329 328 328 329 329 328 328 327 326 326 326 326 327 327 326 327 327 327 327 327 327 327 327 327 326 325 325 325 324
329 329 328 328 327 327 327 327 327 326 326 325 325 325 325 325 325 325 325 325 325 325 325 325 326 326 326 326 326 327 327 328 329 329 328 329 329 329 328 327 327 326 326 326 325 325 325 326 327 326 326 326 326 326 326 326 326 325 325 325 325 325 325
329 328 328 328 328 327 328 328 327 325 324 324 325 324 324 324 325 325 325 325 325 325 324 323 324 326 326 326 326 327 327 327 328 328 328 329 329 329 328 327 326 326 325 325 325 325 324 324 326 325 325 326 325 325 326 325 325 324 325 325 325 325 325
328 327 326 326 326 326 327 328 325 324 323 323 324 324 323 323 324 324 324 324 324 324 324 323 324 326 326 326 326 326 326 327 327 327 327 328 328 328 328 327 327 326 326 325 325 325 323 322 324 325 324 325 325 325 325 323 323 323 324 324 324 324 323
326 326 325 324 324 325 327 326 324 323 323 322 322 323 322 322 323 324 323 321 322 322 323 323 324 326 325 325 325 324 324 325 326 326 327 327 327 327 327 327 328 327 327 326 325 325 324 324 324 324 323 324 325 324 322 320 320 322 322 322 323 322 321
325 325 324 324 324 325 325 324 323 322 322 321 321 322 322 322 323 323 320 318 320 322 323 323 324 324 324 323 321 320 319 320 322 323 324 324 325 325 325 326 327 327 327 326 325 325 325 324 324 322 322 323 323 322 322 320 317 317 317 318 318 318 318
325 325 324 323 323 323 322 321 320 320 320 321 321 322 323 322 321 320 318 318 319 321 322 322 323 323 321 319 317 316 316 317 318 319 320 320 320 321 323 324 325 326 326 326 326 325 325 325 324 322 322 322 323 322 322 320 316 315 314 312 313 314 314
325 325 325 324 322 322 320 319 319 318 319 319 320 321 321 320 319 319 319 319 319 320 321 321 321 322 320 317 315 315 315 315 316 317 317 318 319 321 322 324 325 325 326 326 325 325 325 324 323 323 322 322 322 319 318 318 317 316 314 311 310 311 311
324 324 325 323 322 322 321 319 319 319 319 319 319 320 320 319 319 319 319 319 318 319 320 319 319 320 320 317 315 315 314 314 315 316 317 318 320 322 323 324 325 325 326 326 325 325 324 323 322 321 321 322 322 319 317 317 316 315 315 312 310 310 309
323 324 325 323 322 321 320 320 319 319 319 318 318 319 319 319 319 319 319 318 318 317 318 317 316 318 319 317 315 315 314 314 314 315 316 317 318 320 321 322 323 325 325 325 325 324 323 322 321 320 319 319 319 319 320 321 318 315 314 314 312 310 308
323 325 325 323 322 320 320 320 319 319 319 318 318 318 319 318 318 318 318 318 318 316 315 314 314 316 317 316 315 315 314 313 313 314 315 315 315 316 318 319 321 323 324 324 324 323 322 321 321 320 319 318 316 318 320 321 320 316 314 314 313 310 308
324 325 324 323 322 321 320 320 319 318 318 317 317 317 318 318 317 317 318 318 316 314 313 313 314 315 316 315 315 314 313 312 313 313 314 314 313 314 316 317 319 321 323 323 322 322 321 321 321 320 320 319 317 316 316 318 320 317 314 314 313 310 308
324 324 324 323 322 321 321 320 318 317 316 316 316 315 316 317 317 316 316 316 314 313 314 314 314 314 315 315 314 313 313 314 313 312 313 313 313 313 313 314 316 319 321 322 321 321 321 321 321 321 321 320 319 317 315 316 317 316 314 314 312 309 308
323 323 323 323 322 321 321 320 317 316 316 317 316 315 314 316 316 315 315 314 314 314 314 314 314 313 314 315 314 314 314 315 315 314 313 313 313 313 313 313 314 315 317 318 319 319 319 319 319 320 321 321 320 318 317 315 314 313 314 313 311 309 308
323 323 323 322 322 321 320 319 317 317 318 317 316 315 314 315 316 315 315 314 314 314 313 314 314 314 313 314 314 314 315 314 314 315 314 314 313 313 313 313 313 314 314 314 315 315 315 315 316 316 318 320 320 319 318 315 313 312 313 313 311 309 309
323 323 323 322 322 321 320 318 317 318 318 317 315 314 314 315 316 316 315 315 314 314 315 315 315 315 314 314 315 315 315 314 313 314 314 313 313 313 313 314 314 313 313 313 313 314 314 314 315 315 316 318 320 320 318 315 312 312 312 311 310 309 308
323 323 323 323 322 321 319 318 318 318 318 316 314 315 316 315 315 316 316 316 316 316 316 316 315 315 315 315 316 316 316 315 314 314 314 313 313 313 313 314 315 314 313 313 313 314 314 314 315 314 315 317 318 318 317 315 312 311 311 310 310 309 309
323 323 322 322 321 320 319 318 318 318 318 316 316 316 317 315 316 317 317 316 316 316 316 317 316 316 317 317 317 316 316 315 315 315 315 315 315 315 314 314 315 315 314 313 313 313 314 314 313 313 313 313 314 314 314 312 310 310 310 310 310 309 309
322 322 322 321 321 319 319 319 318 319 317 316 317 316 316 316 317 318 318 316 317 317 317 317 317 317 318 319 319 317 315 316 316 316 316 315 316 316 317 316 317 317 316 314 313 314 314 314 313 312 312 311 311 311 310 309 309 309 309 309 309 309 309
321 320 319 319 318 318 319 320 319 319 318 316 317 317 317 317 318 319 318 317 318 319 319 319 320 318 318 320 320 318 316 317 318 318 318 317 317 318 318 318 318 318 318 316 315 314 314 315 315 315 314 314 313 312 311 310 309 308 308 309 310 312 311
321 320 317 316 317 318 319 320 319 318 318 317 317 318 319 319 319 320 319 318 319 320 320 321 321 319 319 320 320 319 318 319 320 320 320 319 318 319 319 320 319 319 319 319 318 317 316 315 316 316 316 316 316 315 314 313 311 309 309 311 312 314 314
320 320 316 315 320 321 319 320 319 319 319 318 317 318 319 319 320 320 320 319 320 321 321 321 322 321 321 321 321 321 321 321 321 321 321 320 320 320 320 320 320 320 320 320 319 319 318 317 315 315 316 316 317 317 316 315 313 312 312 312 313 314 314
320 319 317 318 321 321 319 320 319 319 319 319 319 319 320 320 320 320 320 320 320 321 321 321 322 322 322 322 322 323 322 322 322 321 321 321 321 321 321 320 320 320 321 320 320 320 320 318 316 315 315 316 316 316 316 316 315 315 314 314 314 314 314
322 321 321 321 322 321 320 319 317 316 317 318 319 319 319 320 320 320 320 321 321 321 321 321 322 323 323 323 323 323 323 323 323 322 321 320 320 320 320 320 320 320 320 321 320 320 320 319 318 316 316 316 316 316 316 316 316 315 315 314 314 314 314
321 321 320 320 320 320 317 315 314 316 318 319 319 318 318 319 320 320 321 321 321 321 321 321 321 322 322 323 322 323 322 322 322 321 321 320 319 319 319 320 320 320 320 320 320 320 320 319 318 317 317 317 317 317 317 316 316 316 315 315 314 313 313
320 321 321 321 321 320 317 315 316 319 320 319 319 319 319 319 320 320 321 321 321 321 320 320 320 319 320 321 321 320 321 321 321 320 320 320 319 318 319 320 320 320 320 320 320 320 320 319 319 318 318 317 317 317 316 316 316 316 315 315 314 313 312
321 320 321 321 322 322 321 319 320 320 320 320 319 319 319 319 320 320 320 320 320 320 320 319 319 319 319 319 319 319 319 320 321 320 320 319 319 318 319 320 320 320 321 320 319 319 320 319 318 317 315 315 315 315 315 316 316 315 315 315 314 313 312
321 320 319 320 320 321 320 320 320 320 320 320 320 320 320 320 320 320 320 320 320 320 320 320 320 319 319 319 318 318 319 320 321 320 319 318 318 319 319 320 320 321 321 320 319 319 318 317 314 311 310 311 311 311 312 312 313 313 313 313 314 313 312
318 319 319 319 320 320 319 319 320 320 320 320 320 320 320 321 321 320 319 319 319 319 320 320 320 319 319 318 318 317 318 320 320 320 319 318 317 318 320 320 320 320 320 319 317 316 314 312 310 308 308 309 308 308 308 308 308 308 309 310 311 311 310
311 312 314 315 317 319 320 320 320 319 320 320 320 319 319 319 320 319 319 319 319 319 319 319 320 319 318 317 317 318 319 319 320 319 319 318 317 318 320 321 320 319 318 317 315 314 313 312 310 309 309 309 309 308 308 307 307 307 307 308 308 308 307
304 305 305 306 308 312 316 319 320 320 320 320 320 320 320 320 320 320 320 319 319 319 319 319 318 318 318 318 318 319 319 319 319 318 318 317 317 319 321 321 320 319 317 316 316 315 314 313 312 311 311 310 310 309 308 308 307 307 306 305 305 305 305
303 303 302 302 303 304 307 311 315 319 320 320 321 321 321 320 320 320 320 319 319 319 319 318 318 318 318 318 319 319 319 317 317 317 317 317 318 319 320 321 321 319 316 316 316 316 315 313 312 311 311 310 310 309 308 307 306 305 304 304 304 304 303
302 302 302 302 302 302 302 303 306 309 313 316 318 320 320 320 320 320 319 319 319 319 319 319 318 318 318 318 318 318 316 314 314 316 316 317 317 318 319 320 320 319 316 315 316 316 314 312 311 311 310 310 310 309 307 306 305 304 304 304 303 302 301
300 301 301 301 302 302 302 302 302 303 304 307 310 312 314 316 318 319 320 319 318 318 318 318 317 317 316 316 316 316 314 312 313 315 316 316 316 317 318 320 320 318 316 315 315 314 311 310 309 308 309 309 309 309 308 306 305 305 305 304 302 301 299
299 299 300 300 301 301 301 301 302 302 302 303 304 305 307 309 312 315 317 318 319 318 317 316 315 315 313 310 309 309 309 310 313 315 315 316 316 316 316 318 318 317 315 314 312 308 305 304 305 306 307 308 309 308 308 307 306 305 304 302 300 299 298
298 298 298 299 299 300 300 300 300 301 301 302 303 303 304 305 307 308 311 313 316 317 317 315 313 311 309 306 305 304 306 310 313 314 314 315 315 315 315 316 317 315 313 310 306 302 301 301 303 306 308 308 308 307 306 305 304 303 301 300 299 298 297
296 297 297 297 298 299 299 299 299 300 300 301 301 302 303 303 303 304 306 308 311 313 315 316 314 311 308 306 304 303 305 308 311 313 314 314 314 315 314 315 315 313 310 306 302 300 301 302 304 306 306 306 305 304 302 301 300 299 299 298 298 298 297

ECMWFFLT1_925_thetae_069.txt.gz
Theta_e
333 332 332 332 333 333 333 333 332 332 331 331 331 331 331 330 330 329 329 329 330 330 329 330 330 330 330 330 330 330 331 330 331 331 330 329 329 328 328 328 328 328 328 329 329 328 327 327 326 326 326 326 326 326 326 326 325 325 324 323 323 323 324
332 332 331 332 332 332 332 332 331 331 330 330 330 329 329 328 328 328 328 327 327 328 328 328 329 328 328 328 328 329 329 329 330 331 331 330 330 329 328 329 329 328 328 328 328 328 326 326 326 326 326 326 325 324 324 323 323 323 323 323 323 323 324
331 331 331 332 332 332 331 330 330 330 329 328 328 328 327 327 326 326 326 325 325 325 326 326 327 326 326 326 326 328 328 329 329 330 330 331 331 330 329 329 329 329 328 328 327 327 327 326 326 326 326 326 325 323 323 322 323 323 324 324 325 325 324
331 332 332 332 332 331 330 329 329 328 327 327 326 326 326 325 325 325 324 324 324 324 324 324 324 325 326 326 326 326 327 328 328 328 329 330 330 330 329 329 329 329 329 329 328 327 327 326 326 326 326 325 324 322 321 321 322 322 322 323 324 325 324
331 332 332 331 331 330 329 328 327 327 326 326 325 325 325 324 325 325 324 324 324 324 324 323 323 324 325 326 326 326 326 327 327 328 328 329 329 329 329 329 329 329 329 329 328 328 328 326 326 326 325 324 323 322 321 321 321 321 321 321 321 323 323
330 330 330 329 329 328 327 327 326 326 325 324 324 324 324 324 324 324 324 324 324 324 323 323 324 324 325 324 325 326 326 326 327 327 328 328 329 329 329 329 328 328 328 328 328 328 327 326 325 325 324 323 322 321 321 321 320 320 319 320 320 321 321
327 327 326 326 326 326 325 325 325 324 324 324 323 323 323 323 323 323 324 323 323 323 323 323 323 323 322 321 321 323 325 325 326 326 326 326 327 327 328 328 328 328 327 327 327 327 326 325 325 324 323 322 321 321 320 319 319 319 318 318 318 319 319
324 324 324 324 325 325 324 324 323 323 323 323 323 323 322 323 324 323 321 320 321 322 322 322 322 320 319 317 317 319 321 322 323 323 323 324 324 324 325 326 327 327 327 326 327 327 326 326 325 324 323 321 320 320 320 319 319 319 317 315 315 315 316
323 323 324 325 325 325 325 324 323 322 322 322 323 322 322 323 323 320 318 318 320 322 322 321 320 317 315 315 316 317 318 318 319 320 320 321 322 323 323 324 326 327 326 326 327 326 326 326 325 324 324 322 321 320 320 319 319 318 316 314 312 311 312
325 324 325 325 326 326 326 325 323 322 322 322 321 321 322 323 320 317 317 318 320 320 320 320 320 317 314 315 316 315 316 317 317 319 319 319 321 323 324 324 325 326 326 325 326 326 325 325 324 324 324 323 321 320 320 320 319 318 315 314 313 311 309
328 326 326 325 325 325 326 326 324 322 321 321 321 322 322 321 318 317 318 318 318 319 318 317 319 318 315 314 315 315 315 316 317 317 317 317 319 322 324 324 325 325 325 325 325 325 324 323 321 321 321 320 320 320 320 319 319 319 316 314 313 311 309
328 327 325 324 323 323 326 325 323 320 319 320 321 322 321 319 318 318 317 317 317 317 315 314 316 319 317 313 314 314 314 314 315 316 315 316 318 321 323 324 325 325 325 325 324 324 324 321 319 319 316 314 315 317 319 317 317 318 316 315 313 310 309
326 325 324 323 323 323 324 323 321 319 318 319 320 321 320 318 319 319 317 317 316 314 313 314 316 319 317 314 314 314 313 313 314 314 314 315 316 319 322 324 325 325 324 324 324 324 323 320 318 317 315 314 312 313 317 316 315 317 316 315 313 310 307
325 324 323 323 323 323 322 321 319 318 318 318 319 320 319 318 319 318 317 317 315 312 312 315 316 317 316 315 314 313 313 312 313 313 313 313 315 317 320 323 323 324 324 324 324 324 323 320 318 315 315 318 315 312 315 316 315 316 315 313 313 310 307
324 324 323 323 323 322 321 319 319 319 318 318 318 318 318 318 318 318 318 316 314 312 312 314 315 315 315 314 313 313 313 313 313 313 312 313 313 314 317 320 322 322 323 323 323 324 323 320 320 318 317 319 319 316 315 315 315 316 315 314 313 311 307
324 324 323 323 323 322 320 319 319 319 318 318 317 316 317 318 318 317 317 315 313 313 313 314 314 315 314 314 313 314 314 314 313 313 313 313 313 313 314 317 320 321 322 322 322 322 322 321 321 322 321 320 321 319 316 314 314 315 315 314 314 312 309
324 324 323 323 323 322 320 319 319 319 318 317 316 315 315 317 317 316 316 314 314 314 313 313 313 314 314 314 314 314 314 314 313 313 313 313 313 313 313 313 315 317 319 322 322 322 322 321 321 322 322 321 321 321 319 316 314 315 315 314 313 313 312
324 324 323 323 323 322 320 320 319 318 317 316 316 315 315 315 316 316 315 314 314 313 313 313 313 313 314 314 314 314 314 314 313 313 313 313 313 313 313 313 313 313 314 316 319 320 320 320 320 319 319 319 319 319 319 318 316 314 314 313 313 313 313
323 323 323 323 323 322 320 320 319 317 316 316 316 315 315 315 316 315 314 314 313 313 314 314 314 314 313 314 314 315 316 315 314 314 314 314 314 314 314 314 313 313 313 313 314 315 315 315 315 315 314 315 315 316 318 318 316 314 314 314 313 312 312
322 321 321 321 320 320 320 319 318 316 316 316 316 315 314 315 316 315 315 314 314 315 315 315 315 314 314 314 315 317 317 316 315 315 315 315 315 316 317 316 316 315 315 314 313 313 313 313 313 313 313 312 313 315 317 316 316 315 315 314 314 313 313
320 321 322 321 319 319 319 319 318 317 316 317 316 315 314 315 315 315 315 315 315 315 315 315 315 315 315 316 317 318 319 318 316 315 316 317 316 316 317 318 318 318 317 317 316 315 314 314 313 314 313 312 312 315 317 316 315 316 315 314 313 314 314
319 320 322 321 320 319 319 318 318 317 317 317 316 315 314 315 316 315 315 316 316 315 315 316 316 316 317 318 318 318 319 319 318 316 316 318 318 318 318 318 319 319 319 319 319 318 317 316 315 315 314 313 312 313 315 316 315 315 315 314 314 314 314
319 320 320 320 319 319 319 318 318 317 317 317 317 316 316 316 316 315 315 316 316 316 316 316 317 318 319 320 320 320 319 319 319 317 318 319 320 320 319 319 320 320 320 320 320 320 319 319 318 317 316 315 314 312 313 314 314 314 314 314 315 314 314
319 319 319 320 320 319 317 316 317 317 317 317 319 318 317 317 318 317 316 316 317 317 317 317 317 318 319 319 320 320 320 320 320 319 319 320 321 321 321 320 320 320 320 320 320 320 320 319 319 319 318 316 315 314 313 312 312 313 314 315 316 315 315
319 319 319 319 319 317 314 314 315 315 315 316 318 319 317 317 318 318 317 317 318 318 319 318 318 318 318 320 320 320 321 320 320 320 321 321 321 321 321 321 321 321 320 320 320 320 320 320 319 319 318 316 315 316 315 314 313 313 314 315 316 315 316
318 318 318 318 318 316 315 315 316 315 315 317 318 318 318 318 318 318 318 319 319 319 319 319 319 319 319 320 320 320 321 321 321 321 321 322 322 322 321 321 321 320 320 320 319 319 319 320 320 319 318 316 315 316 315 315 315 314 314 314 314 313 314
319 319 318 318 318 317 317 317 317 317 318 318 318 318 318 318 318 319 319 319 319 319 319 319 319 320 320 320 320 320 321 321 321 321 322 322 322 322 321 321 320 320 320 319 319 319 319 319 319 319 317 315 315 315 315 315 315 315 314 314 313 312 312
318 318 318 318 318 318 318 318 318 318 318 318 318 318 318 318 318 318 319 319 319 319 319 319 319 320 320 320 320 321 321 321 321 322 322 322 322 321 320 320 320 320 320 319 319 318 319 319 319 318 316 315 315 315 316 316 316 316 315 315 315 314 313
316 316 317 318 318 318 319 319 319 319 319 319 319 319 319 319 319 319 319 319 319 319 319 319 319 319 319 319 319 319 319 320 320 320 321 321 320 320 319 319 320 320 319 319 318 318 318 319 318 317 316 315 315 316 316 316 316 316 315 315 314 314 314
312 312 314 315 316 317 317 318 319 319 319 319 319 319 319 319 318 319 318 319 319 319 319 318 318 318 318 318 318 318 318 319 319 319 319 319 319 318 318 319 319 319 319 318 317 318 318 318 317 317 316 315 315 315 315 315 315 315 314 313 313 313 312
306 306 307 308 310 312 314 315 317 318 318 318 318 318 318 318 318 318 318 318 318 318 318 319 319 318 318 318 318 318 318 318 318 318 318 318 318 318 318 318 318 319 319 318 317 318 319 318 317 316 316 315 314 313 313 313 313 313 313 312 311 311 310
303 303 303 303 304 307 309 310 312 313 314 315 316 317 317 318 318 318 318 317 316 316 317 319 319 318 318 318 318 318 318 318 318 318 318 318 318 318 318 318 318 319 318 318 318 319 319 318 317 316 315 314 313 311 311 311 311 311 311 310 309 309 308
301 302 303 303 304 305 306 306 307 308 308 309 311 312 312 313 314 315 316 316 315 316 317 318 318 318 318 317 317 317 317 317 317 317 317 318 318 318 318 318 318 318 318 317 318 320 319 319 317 316 314 313 312 310 309 309 309 309 309 309 307 306 305
299 299 300 302 302 303 305 306 307 306 305 306 307 306 306 306 307 308 309 310 310 311 311 311 313 315 316 315 314 313 313 313 314 314 315 316 316 316 316 316 315 316 317 317 318 320 320 319 318 316 314 312 311 309 308 308 308 307 307 307 305 304 303
297 297 298 298 299 300 301 302 303 303 303 303 303 303 303 303 303 303 304 304 305 305 305 305 306 308 310 311 312 311 310 309 308 308 310 312 313 313 313 313 313 314 315 316 318 319 319 318 318 316 313 310 309 307 307 307 306 306 305 304 303 302 301
296 296 296 297 297 297 298 298 299 299 300 300 301 301 302 301 302 302 302 302 302 302 302 303 303 304 305 307 307 308 309 308 307 306 306 307 309 309 310 311 313 313 314 315 317 318 318 316 315 313 311 309 308 307 307 307 306 305 304 303 302 301 300
295 295 295 295 296 296 297 297 297 298 298 298 299 299 300 300 301 302 302 301 301 301 301 301 301 302 303 304 305 305 306 307 308 307 306 305 305 305 306 307 309 312 313 314 315 317 318 315 312 310 308 308 307 307 307 306 305 303 303 302 301 301 300

ECMWFFLT1_925_thetae_072.txt.gz
Theta_e
334 334 335 335 335 335 335 334 333 333 333 333 332 332 332 332 332 332 333 333 333 333 333 334 334 334 334 334 333 333 333 332 332 331 331 331 331 331 331 332 332 332 331 331 331 329 329 329 329 329 329 328 328 328 328 327 327 327 326 326 327 326 327
335 334 334 334 334 334 334 333 332 332 332 332 332 332 332 331 331 330 331 331 331 330 330 330 332 332 333 333 333 333 333 333 332 332 332 331 331 331 331 331 330 330 331 332 331 330 329 329 329 329 329 329 327 326 326 326 325 326 325 325 325 326 326
335 333 333 334 334 333 332 332 332 331 331 332 331 331 330 330 330 330 329 329 329 329 328 328 328 329 330 330 330 331 333 333 333 332 331 331 330 330 331 330 329 329 330 331 331 330 330 330 329 329 329 329 327 325 325 325 325 325 325 325 325 325 325
333 333 333 333 333 332 332 332 331 331 330 330 331 330 330 330 330 330 329 328 329 328 327 328 327 327 327 327 328 329 331 332 333 332 331 330 329 329 330 330 328 329 329 330 330 330 330 330 329 329 329 328 327 325 324 324 325 325 325 325 325 325 324
333 333 333 333 332 332 331 331 330 330 329 329 329 329 329 330 329 329 328 328 328 327 327 327 326 326 326 327 328 328 330 332 333 333 332 331 330 329 329 329 328 329 330 329 330 330 329 330 329 329 328 326 326 325 324 324 324 324 325 325 325 324 324
334 333 333 332 331 330 330 329 329 329 328 328 328 328 329 329 329 328 328 327 327 327 327 326 325 326 327 327 327 328 330 332 333 332 332 332 331 330 330 329 329 330 330 330 330 329 329 329 329 329 327 325 325 324 323 323 323 323 323 323 324 324 323
335 334 332 331 331 331 330 329 328 328 327 328 328 328 328 328 328 328 328 327 326 326 325 325 326 326 327 326 326 327 329 331 332 332 332 332 332 332 331 330 330 330 330 330 330 329 329 329 329 328 326 326 325 324 323 321 321 321 321 321 322 323 323
335 333 330 331 332 330 329 328 327 326 327 327 327 328 328 328 328 328 327 327 326 325 324 325 326 325 325 325 325 326 327 328 330 331 330 331 332 331 332 331 330 330 330 330 330 329 328 328 328 326 325 324 323 322 322 321 320 320 320 320 320 322 322
333 331 331 331 331 330 328 327 327 327 327 326 327 327 328 328 328 327 325 324 324 324 324 324 324 323 323 323 324 325 325 325 326 327 326 327 329 330 331 331 330 330 330 330 329 329 328 327 327 325 323 322 322 322 321 320 320 320 319 318 318 319 320
330 330 330 328 327 328 328 327 327 327 327 327 327 327 327 327 327 324 322 323 324 324 323 323 322 321 322 322 323 323 323 323 324 324 323 324 326 329 330 330 330 330 330 330 329 329 329 328 325 323 322 321 321 321 320 320 320 319 318 317 317 316 316
329 330 330 327 326 328 329 327 327 327 326 326 326 326 327 327 325 322 321 322 323 323 323 323 321 319 320 321 321 321 322 322 322 321 322 323 325 328 329 330 330 330 330 330 330 330 329 327 323 322 321 320 319 320 320 320 319 319 318 317 315 314 313
330 329 329 329 329 329 329 328 327 326 326 325 325 325 326 326 324 322 322 322 322 321 322 323 321 320 320 320 320 320 320 320 319 319 321 323 325 327 329 330 330 330 330 330 330 329 328 325 321 319 319 318 318 318 318 319 319 319 318 316 314 313 312
330 329 329 329 329 329 329 328 327 326 325 324 325 326 326 324 323 323 322 321 320 319 320 322 322 321 320 320 320 319 319 318 318 319 320 322 323 325 327 328 329 329 330 330 329 328 326 323 320 319 318 317 318 317 317 317 318 319 318 316 314 312 311
330 329 329 329 329 328 327 327 326 325 324 324 325 325 324 323 322 322 321 320 319 318 319 321 322 321 320 320 320 318 317 317 318 319 319 321 322 323 324 326 327 329 329 328 328 327 325 322 320 320 319 318 318 317 316 315 316 318 319 316 313 311 311
330 329 328 328 328 327 327 327 326 324 323 324 325 324 323 323 322 321 320 320 318 318 319 320 321 321 320 319 318 317 317 317 318 319 319 319 321 322 323 323 326 328 328 327 325 323 322 321 320 319 319 319 318 318 317 316 315 317 317 316 313 312 311
330 329 328 328 328 327 327 326 325 323 322 323 323 323 323 322 322 321 320 319 317 317 318 320 320 320 319 318 317 318 318 318 319 319 318 318 319 321 322 322 324 326 326 325 323 322 322 321 319 318 319 320 320 319 318 317 317 316 316 315 314 313 311
329 329 328 327 327 327 327 326 324 323 322 322 322 322 322 322 321 321 320 318 317 317 318 319 320 319 318 318 317 318 318 319 319 319 318 318 318 319 320 321 322 323 324 324 323 322 321 321 320 320 319 320 320 321 320 318 318 317 316 315 315 313 312
329 329 328 327 327 326 326 325 324 323 323 322 321 321 321 321 321 321 319 318 317 317 317 318 319 319 319 319 319 318 318 318 319 318 318 318 317 318 319 319 320 321 322 323 323 322 321 321 320 320 320 319 319 320 321 319 318 317 317 317 315 314 313
328 328 328 328 327 326 325 324 324 323 322 321 321 321 320 320 320 320 319 317 317 317 316 317 318 318 319 319 319 319 319 318 318 318 318 318 318 318 318 318 319 319 320 321 321 321 321 320 320 319 318 318 317 319 320 320 319 318 318 317 315 315 315
326 327 327 327 326 325 325 324 323 322 321 321 321 320 318 318 319 319 318 317 317 317 317 318 318 318 318 319 319 320 320 319 319 320 320 320 320 320 319 319 318 318 319 319 319 319 319 319 319 318 318 318 317 318 320 320 319 319 319 317 316 316 316
324 325 325 324 324 324 324 324 323 321 320 320 320 319 318 318 319 319 319 318 317 318 319 319 319 319 318 319 320 320 321 320 320 321 322 322 322 322 321 321 320 320 320 320 319 319 319 319 319 318 318 319 318 319 320 320 320 319 319 318 317 316 316
322 323 323 322 321 321 322 322 323 322 322 321 320 319 318 318 319 320 320 320 320 320 320 320 320 320 319 320 321 322 322 322 322 322 322 322 322 323 322 322 322 322 321 320 320 320 319 319 319 320 320 319 319 319 319 320 320 320 320 319 318 316 316
321 321 321 321 319 319 319 320 320 320 321 322 321 320 319 318 319 319 320 321 322 321 322 322 320 319 319 321 322 322 323 323 323 323 322 323 323 323 323 323 323 321 320 320 320 320 320 320 320 320 320 320 319 319 319 319 319 320 320 319 318 316 316
321 320 320 319 319 318 318 318 318 317 318 319 319 319 320 319 319 318 318 319 321 322 322 320 317 318 319 321 322 323 324 324 324 324 323 324 324 325 324 324 324 323 321 321 321 320 320 320 320 320 319 319 319 319 318 318 319 318 318 318 317 316 316
319 319 319 318 318 318 318 317 316 316 316 317 317 318 319 318 318 317 317 317 319 321 321 318 316 317 318 319 320 322 324 325 325 324 325 325 325 325 325 325 326 325 324 323 322 322 321 320 320 320 319 319 319 319 318 317 317 318 318 317 316 316 316
320 319 319 319 318 318 318 316 315 314 315 315 315 317 318 318 317 317 318 317 317 319 320 319 318 318 318 318 319 321 323 326 325 325 325 325 325 325 325 325 326 326 326 324 323 323 323 321 320 319 319 319 319 319 319 317 316 316 317 317 317 316 316
320 320 320 320 319 318 318 317 315 315 316 315 315 317 318 318 317 318 318 318 318 320 320 319 319 319 319 319 319 320 322 325 326 326 326 326 326 325 325 325 325 325 325 325 324 323 323 323 322 320 320 320 319 319 319 318 316 315 316 316 317 317 317
320 320 320 320 319 319 319 318 316 315 317 316 317 318 318 318 318 318 318 319 321 322 320 318 319 319 319 320 320 320 321 323 325 325 325 326 326 326 325 325 325 324 324 324 325 323 322 322 321 320 320 320 320 319 319 318 316 316 316 317 318 319 320
316 318 319 319 319 319 319 319 318 317 318 318 318 319 319 319 319 320 319 320 322 322 320 318 319 319 319 320 319 320 321 323 323 324 324 325 325 325 325 324 324 324 323 324 324 322 320 319 320 320 319 319 319 319 318 317 316 315 316 317 318 320 320
312 313 316 318 318 317 318 319 319 320 320 320 320 320 320 320 320 321 321 321 322 322 319 318 318 318 319 319 318 320 322 322 323 323 323 323 323 323 324 323 323 323 324 323 323 321 319 318 319 319 319 319 319 318 317 316 316 315 316 316 316 317 317
309 310 312 314 315 315 316 317 318 319 320 321 320 320 320 320 320 320 320 320 321 320 318 318 318 318 318 319 318 319 321 321 322 322 322 322 322 322 323 322 320 320 322 322 321 320 319 318 318 319 319 319 319 318 316 315 315 315 315 315 315 315 315
306 307 308 309 310 311 312 314 315 315 315 316 317 317 319 319 318 318 318 317 318 318 317 316 318 318 318 318 318 319 320 320 321 321 322 322 322 322 322 322 320 319 319 320 320 319 318 318 318 319 319 318 318 318 315 314 315 315 314 313 313 312 311
304 305 305 306 307 308 309 311 314 313 312 313 313 313 314 314 313 313 313 313 313 314 313 312 314 316 316 316 316 316 318 319 320 321 322 322 322 322 322 321 321 319 317 317 317 318 318 318 319 319 318 318 318 318 316 314 314 313 312 311 310 309 309
303 304 304 305 306 306 307 308 310 310 310 310 310 310 310 310 310 309 309 309 309 310 309 309 310 311 312 313 313 313 314 315 315 316 317 317 318 320 319 319 319 317 314 314 315 316 317 318 319 318 318 318 318 317 316 314 312 311 311 310 309 309 308
302 303 304 304 305 305 306 306 307 308 308 307 307 307 308 309 308 308 307 306 307 307 307 306 306 307 308 309 309 310 311 311 311 311 313 315 316 316 316 317 315 311 309 311 314 315 316 317 318 318 317 316 316 315 315 313 311 311 311 310 309 309 309
299 300 302 303 304 304 304 305 305 306 307 307 307 308 308 308 308 308 307 307 307 306 305 303 302 303 304 305 305 306 307 308 308 309 312 314 314 314 314 314 312 308 305 307 310 312 314 316 317 317 316 316 314 313 313 312 311 310 311 310 309 309 308
296 297 298 299 301 302 302 303 303 304 305 306 306 306 306 307 307 307 307 307 307 307 307 305 303 301 301 302 303 303 303 304 305 305 308 311 312 311 310 310 308 307 306 306 306 307 309 312 315 316 316 316 314 310 310 310 310 310 310 309 309 308 307

ECMWFFLT1_925_thetae_075.txt.gz
Theta_e
334 333 333 332 333 336 337 337 337 336 335 334 333 334 334 333 335 336 336 336 336 335 334 334 335 333 332 332 333 333 333 332 331 331 332 333 333 333 334 333 332 332 330 330 331 331 331 331 330 330 330 331 331 330 330 329 329 329 329 329 329 329 329
333 332 333 332 332 336 338 337 335 334 334 334 333 333 333 333 334 334 334 334 334 333 332 333 334 334 334 334 334 334 332 332 332 332 332 333 333 332 332 332 332 331 330 331 331 331 332 331 329 329 330 331 330 330 329 328 328 328 327 328 328 328 329
333 333 333 332 334 337 337 335 334 334 334 334 333 333 332 332 332 332 332 332 332 331 330 330 331 332 334 334 333 332 332 331 332 333 332 334 334 332 331 332 332 331 331 332 332 332 331 330 330 329 329 330 329 329 328 327 328 327 327 327 327 328 328
334 333 332 333 335 336 335 334 334 334 333 333 333 333 332 332 332 331 331 331 330 330 329 329 329 329 330 330 330 331 332 332 332 333 333 333 333 332 332 333 333 332 331 331 331 331 329 329 330 330 329 329 328 328 328 327 327 327 328 327 327 327 327
333 333 333 333 334 334 334 334 334 333 333 333 333 332 332 332 331 331 330 330 329 329 329 328 328 327 327 328 329 329 331 333 334 334 334 331 331 332 333 333 332 330 330 330 329 329 329 329 329 329 329 328 328 328 327 327 327 327 328 327 326 327 327
332 332 333 333 333 333 333 333 333 332 332 332 331 331 330 330 330 330 329 328 328 328 328 328 327 327 327 328 328 328 330 333 334 334 333 331 330 331 332 332 331 329 329 330 328 329 330 328 329 329 328 328 328 327 326 326 326 325 326 327 326 326 325
331 331 332 332 332 332 332 331 331 330 330 330 330 328 329 329 329 328 328 327 327 327 328 328 327 327 327 327 327 328 331 333 334 333 333 332 330 330 330 330 330 329 328 329 329 329 329 328 329 328 328 328 327 326 325 325 324 324 325 325 325 325 325
329 330 332 331 331 330 330 330 330 329 329 330 329 328 328 328 328 328 327 327 327 327 327 327 327 327 327 326 327 328 330 332 333 333 333 333 332 331 331 329 329 329 328 329 329 328 328 329 329 328 328 327 325 324 323 323 323 322 323 324 324 324 323
330 331 332 330 330 331 330 330 329 329 329 329 329 328 328 328 327 327 327 326 327 326 326 326 326 326 327 326 327 328 328 328 330 330 330 331 331 332 332 330 329 329 329 329 328 328 328 328 328 327 327 326 324 323 322 322 322 322 322 322 323 322 321
331 332 331 331 331 330 329 329 329 329 328 328 329 328 328 327 326 326 326 326 326 326 326 326 325 325 326 326 327 327 327 326 327 327 326 327 328 330 332 331 330 329 329 329 327 328 328 327 326 325 324 323 323 323 322 322 321 321 320 320 320 320 319
332 331 332 332 330 329 328 329 329 328 328 328 329 328 327 326 326 325 324 325 326 326 326 325 324 324 324 325 325 325 325 325 325 325 325 326 327 329 330 331 330 329 329 329 328 329 329 327 325 323 322 322 322 322 321 321 321 319 319 318 318 318 316
331 330 330 330 328 328 328 328 328 328 328 328 328 327 326 326 325 323 324 325 325 325 325 324 323 324 324 324 324 324 324 324 323 323 323 325 326 328 330 331 330 329 330 330 329 329 328 325 323 322 321 320 321 321 321 320 320 319 318 317 316 316 315
330 330 329 327 327 328 328 327 327 327 327 327 327 326 326 326 324 323 323 323 324 325 325 324 322 323 323 322 322 322 322 321 320 321 322 323 325 326 329 331 331 330 330 330 329 328 325 323 321 320 320 320 320 319 320 319 320 319 318 317 316 315 314
330 329 328 327 328 329 328 327 327 327 326 326 326 326 326 325 324 323 322 321 322 323 324 324 323 322 322 322 321 321 319 319 319 320 321 323 323 324 326 328 330 331 330 329 328 326 323 321 321 319 319 319 318 318 318 318 319 319 318 316 314 313 312
330 329 329 328 328 328 328 327 326 325 325 326 326 326 326 324 323 322 321 320 319 320 322 324 323 322 322 322 321 319 318 319 320 320 321 322 323 324 325 327 330 331 329 328 326 324 322 321 320 320 319 318 318 317 317 317 318 319 318 316 313 313 312
330 329 328 328 327 327 327 327 326 324 324 325 326 325 324 323 322 322 320 319 318 318 321 323 323 322 321 320 319 318 319 319 320 320 321 321 322 323 324 326 328 329 327 325 324 323 322 320 320 320 319 319 319 318 317 317 317 317 317 315 314 313 312
330 328 326 327 327 326 327 327 325 324 323 324 325 324 324 323 322 322 321 319 318 318 320 322 322 321 319 318 318 319 320 320 320 320 320 320 322 323 323 324 326 326 325 324 323 322 322 321 320 320 320 320 320 320 319 318 317 317 316 315 315 314 313
329 328 326 327 328 327 327 326 325 323 322 322 323 324 324 324 323 322 321 318 317 318 320 320 320 320 319 318 319 320 320 320 320 320 320 320 320 321 322 323 323 324 324 323 322 322 322 321 320 321 321 321 321 321 320 320 319 317 317 316 316 315 314
330 329 327 327 327 327 326 326 325 324 323 322 323 324 323 323 323 322 320 319 317 318 319 319 319 319 319 319 320 320 320 320 320 320 319 319 320 320 321 321 322 323 323 323 322 323 322 321 321 321 321 320 320 320 320 320 320 319 318 318 317 317 315
330 329 328 327 327 326 326 325 324 324 323 322 322 322 322 322 322 322 320 318 317 317 318 319 319 320 320 320 320 320 320 320 320 320 320 320 320 320 320 320 320 320 321 322 322 322 322 321 321 320 319 319 319 319 320 320 320 319 319 319 318 317 316
328 329 328 328 327 326 326 325 324 323 323 322 322 320 320 321 321 320 319 318 318 317 318 319 319 319 319 320 320 321 320 321 321 321 322 322 322 322 321 321 320 320 321 321 321 322 322 321 321 320 320 320 319 319 319 320 320 320 320 320 319 318 317
327 328 328 328 328 327 325 325 324 322 322 322 321 320 319 319 319 320 320 319 318 319 320 320 320 319 319 319 320 321 321 321 322 322 323 323 323 323 323 322 323 323 322 321 320 320 321 320 320 321 322 322 321 321 320 320 321 321 320 320 320 318 318
326 326 326 326 326 326 326 325 324 322 322 321 320 319 318 318 319 321 321 321 321 321 322 322 320 319 319 320 321 322 322 322 323 323 323 324 323 323 323 324 324 323 321 319 319 319 319 319 319 319 321 322 322 322 322 321 321 321 321 321 321 320 319
325 325 324 324 324 325 325 325 324 324 323 322 321 320 319 319 320 320 321 322 322 322 323 323 320 318 319 320 322 323 323 322 323 323 323 324 324 324 324 324 325 323 321 320 320 320 320 319 319 319 319 319 319 320 320 321 321 320 321 321 320 320 320
324 324 324 323 323 323 323 323 323 323 324 322 322 322 321 321 321 321 321 322 322 323 323 322 319 318 319 320 321 324 324 323 324 324 324 324 324 324 325 325 326 326 325 324 323 323 323 322 320 320 320 319 319 319 318 319 319 320 320 321 321 320 320
322 322 322 321 319 319 320 319 319 319 320 319 319 320 321 321 320 320 320 321 322 323 322 319 317 317 317 318 319 321 323 324 325 324 324 324 324 324 324 325 325 326 326 326 324 324 324 324 324 322 321 320 319 319 319 318 318 318 319 319 320 321 320
321 321 320 319 318 318 317 317 317 316 316 316 316 317 318 317 316 315 314 315 319 323 322 319 318 317 317 317 317 318 320 323 325 326 325 325 325 325 324 325 325 325 325 325 324 324 324 324 324 324 323 322 321 320 320 320 319 318 318 318 318 319 319
321 321 321 320 320 319 317 315 316 316 316 317 315 316 319 320 317 315 314 316 320 322 321 320 319 318 318 318 318 318 319 322 325 326 325 324 324 324 325 325 324 324 324 324 323 324 324 323 323 324 324 324 323 322 321 321 321 320 319 319 319 319 319
321 321 321 321 321 321 318 317 317 318 319 319 318 318 320 321 319 319 319 320 322 323 321 320 319 319 319 319 319 319 319 321 323 324 324 322 322 323 325 325 324 324 324 324 323 323 323 323 322 322 322 322 322 322 321 321 321 320 319 319 319 319 319
319 320 320 320 320 320 319 319 319 319 319 320 320 320 321 322 321 321 321 321 321 322 321 319 319 319 319 319 319 319 320 322 323 322 322 321 322 324 325 324 323 324 324 324 323 323 323 323 322 322 321 321 321 321 321 321 320 319 319 319 318 317 317
316 318 319 319 319 319 319 319 320 320 320 320 321 321 322 322 321 321 321 320 321 321 320 319 319 319 319 319 319 319 320 321 322 321 321 322 323 323 323 323 323 323 323 323 322 323 323 322 322 322 322 321 320 320 320 321 319 319 319 318 316 315 315
312 314 315 315 316 317 317 318 319 320 320 320 321 321 321 321 320 319 319 319 319 318 318 318 318 318 318 318 319 319 319 320 320 319 321 321 322 322 321 321 321 321 321 320 320 321 321 321 320 321 321 321 320 319 320 320 319 318 317 316 315 315 315
309 310 311 312 312 314 315 316 317 318 318 319 319 318 318 318 318 317 317 317 317 315 315 316 317 317 317 317 318 317 318 319 319 318 319 320 320 320 320 319 318 319 320 319 318 317 318 319 319 319 320 320 320 319 319 319 318 317 316 315 314 314 314
308 308 309 310 310 311 312 313 314 315 315 316 316 315 315 315 315 314 313 314 313 312 311 311 312 312 313 314 315 315 316 317 316 316 317 317 317 317 317 318 317 317 318 316 314 314 315 317 317 317 318 319 319 318 317 317 317 317 316 315 314 313 313
306 307 308 309 309 309 310 311 312 312 312 313 313 313 312 312 311 311 311 310 308 307 306 306 306 307 308 308 309 311 312 313 313 313 316 317 316 316 316 317 316 315 314 312 309 309 312 314 316 317 318 319 319 318 317 316 317 316 315 315 315 313 313
303 304 306 307 308 308 309 309 310 310 311 312 312 312 312 311 310 310 310 309 307 305 304 304 303 303 304 304 305 305 307 308 308 310 312 314 315 314 314 314 313 313 312 310 308 307 308 309 311 314 315 317 319 319 317 315 315 315 314 314 314 313 313
300 301 302 304 304 305 306 306 307 308 309 310 310 311 311 312 311 310 309 309 308 307 307 307 304 302 301 301 301 301 302 303 304 305 308 310 312 313 312 311 310 310 309 309 308 308 307 306 307 309 311 313 316 318 317 314 313 313 314 313 312 312 312

ECMWFFLT1_925_thetae_078.txt.gz
Theta_e
334 334 335 335 333 333 333 334 335 334 334 334 333 332 333 334 334 334 334 334 335 335 335 334 334 334 333 333 333 333 332 333 333 332 331 332 333 333 332 332 333 333 332 332 332 332 332 332 330 331 331 329 330 330 330 330 330 330 329 329 329 328 328
335 335 334 333 333 333 333 333 334 334 334 333 333 332 333 334 334 334 334 335 335 334 334 334 334 333 333 333 334 333 333 332 331 331 332 332 332 331 332 332 332 332 331 332 332 331 332 332 331 331 330 330 330 329 329 329 329 329 329 328 328 328 327
335 335 334 333 333 333 333 333 333 333 333 332 332 332 333 333 334 333 334 334 333 332 333 333 334 333 333 334 334 334 333 331 331 331 332 334 333 331 331 331 330 330 330 331 331 331 331 331 332 331 330 330 330 329 329 328 328 328 328 328 327 327 327
335 333 333 333 333 333 333 333 332 331 331 332 332 333 333 333 333 333 333 332 331 331 330 331 332 332 332 332 333 332 331 331 332 332 333 335 334 332 331 331 330 330 330 330 330 331 331 331 332 331 330 330 329 329 328 328 328 328 328 327 327 327 326
334 334 334 334 333 334 333 332 331 331 331 332 333 333 332 332 332 331 331 330 330 329 329 329 329 329 329 330 331 331 331 331 332 333 333 333 333 332 332 332 331 330 331 331 330 330 329 330 331 330 330 329 329 329 328 328 328 327 327 327 326 326 326
336 335 335 335 334 333 332 332 331 331 332 333 332 332 332 331 331 330 330 330 329 329 329 328 328 328 328 329 329 330 331 332 333 334 333 332 332 333 333 332 332 331 332 331 329 328 328 328 330 330 329 329 328 328 327 327 327 326 326 326 326 325 324
336 335 335 335 334 333 333 333 333 333 333 333 332 332 331 331 330 329 329 328 328 328 328 328 328 328 327 328 329 329 331 332 333 333 332 331 331 332 333 332 332 331 331 330 329 329 328 328 329 329 328 328 327 327 326 326 327 326 326 325 325 324 323
334 334 333 334 333 333 333 333 332 332 332 332 331 330 329 329 329 328 328 327 328 328 328 328 327 327 327 328 329 329 331 332 333 333 332 332 331 330 331 331 330 328 329 329 328 329 328 327 328 328 328 329 328 326 325 325 326 326 325 324 324 323 322
333 333 332 332 332 332 332 331 330 330 331 330 329 328 328 328 327 327 327 327 327 327 327 327 327 327 327 327 328 329 330 331 332 332 331 332 331 330 330 330 328 327 329 328 327 328 328 327 328 327 327 327 328 327 326 325 324 324 325 324 324 323 321
332 332 332 332 332 332 331 330 330 330 330 329 328 328 328 327 327 327 327 326 326 326 327 327 326 326 327 327 327 328 329 329 329 329 329 331 330 330 330 329 328 328 329 329 328 328 328 328 328 327 327 325 324 326 327 326 324 323 324 323 322 321 320
332 331 332 332 331 331 330 330 329 329 329 329 328 328 327 327 326 326 326 326 326 326 326 326 325 326 326 326 327 327 327 327 327 326 327 328 329 330 330 329 328 329 329 328 328 328 328 327 326 325 325 324 323 324 325 325 325 323 322 322 320 320 319
332 331 332 331 330 330 329 329 328 329 329 329 328 328 327 326 325 325 325 326 326 326 325 325 324 325 325 325 325 325 325 325 325 325 325 327 328 330 330 329 329 329 329 328 328 329 327 325 325 323 323 322 322 322 321 323 324 322 321 321 319 317 316
332 332 332 330 329 329 329 328 328 328 329 328 327 327 327 325 324 325 325 325 326 326 324 323 323 324 324 324 323 324 323 322 322 323 323 325 327 329 330 329 329 330 330 329 329 328 325 324 323 322 322 322 321 322 321 321 322 321 318 318 317 315 313
331 331 330 329 328 329 328 328 328 328 328 328 327 327 326 324 323 324 324 324 326 325 323 323 323 323 323 322 322 322 320 320 320 321 322 323 326 327 328 329 329 330 329 329 328 326 324 323 322 321 320 320 321 321 321 320 320 319 317 316 316 314 312
329 329 328 328 328 329 328 328 327 327 327 327 326 327 326 323 323 322 322 323 324 324 324 323 323 323 322 322 321 320 319 319 320 320 322 323 324 325 327 329 329 329 329 328 326 324 322 321 320 319 318 319 319 319 320 320 319 318 317 315 315 314 312
328 327 327 328 328 328 328 327 326 326 326 326 326 327 325 323 323 321 320 320 321 323 324 323 322 322 323 321 319 318 319 320 320 321 321 323 324 325 327 328 329 329 328 327 325 323 321 321 320 319 319 319 318 318 319 319 318 318 316 315 314 313 312
328 328 328 328 328 328 327 326 325 325 326 326 326 326 324 322 322 321 319 319 319 321 324 323 322 322 321 319 318 319 320 320 320 321 321 322 323 324 326 328 329 328 326 325 324 322 321 321 320 319 319 319 319 319 319 319 318 318 317 315 314 312 312
328 328 328 328 328 328 327 325 324 325 326 326 325 325 323 322 322 321 319 318 318 320 322 323 322 321 319 318 318 319 320 320 320 321 321 322 323 323 325 326 326 326 325 324 323 322 321 321 320 320 320 320 320 319 319 319 319 317 316 315 314 313 312
328 328 327 327 327 327 327 325 324 324 324 325 325 324 323 323 322 321 319 318 318 320 320 321 320 319 318 318 319 320 320 320 321 320 320 321 322 322 323 324 324 324 324 323 322 322 322 321 321 321 321 320 320 319 319 319 319 318 316 315 314 314 313
328 327 327 327 327 327 326 324 323 323 323 324 324 324 324 323 323 321 319 318 318 319 320 320 319 319 319 319 320 320 321 321 320 319 320 320 320 321 322 322 323 323 323 322 322 323 322 321 321 321 320 320 320 320 319 320 319 319 318 317 316 315 315
328 327 327 327 327 327 326 325 324 323 323 323 323 323 323 323 322 321 319 318 318 318 319 319 320 320 320 320 320 320 321 320 320 321 321 321 321 321 320 320 321 322 322 322 322 322 322 321 322 322 321 320 320 321 320 320 320 320 320 320 318 317 316
328 327 328 327 326 326 325 325 324 323 323 322 321 322 322 322 321 320 319 318 317 318 321 321 320 320 320 320 321 321 321 321 321 322 322 323 323 322 321 322 322 322 321 321 321 321 321 321 321 322 321 321 321 322 322 322 322 321 321 321 320 320 319
328 328 328 327 326 326 325 324 323 322 323 322 320 320 320 320 320 320 320 319 319 321 323 321 320 321 321 321 321 321 321 321 322 322 323 324 323 323 323 323 324 323 322 321 320 319 319 319 319 320 320 321 321 321 321 321 322 322 322 322 321 320 319
327 327 328 327 326 326 325 325 324 322 322 321 320 319 319 319 320 321 321 322 322 323 323 321 320 320 321 321 322 322 322 321 321 322 323 323 323 323 323 323 323 323 322 320 319 318 318 318 318 318 318 319 319 319 319 319 319 320 321 322 322 321 320
325 325 326 326 326 325 325 325 324 323 322 321 320 320 319 320 321 321 322 323 323 323 323 321 320 320 320 321 322 323 323 323 322 322 322 323 323 322 322 323 323 324 324 322 321 322 322 320 320 319 318 318 318 318 318 318 318 318 318 320 321 321 321
324 324 324 324 324 324 324 324 323 323 323 323 322 322 322 322 322 322 323 323 323 322 320 318 318 318 319 320 320 322 322 323 323 323 323 322 322 322 322 322 322 322 324 324 324 323 324 323 323 323 322 321 320 319 319 318 318 318 318 318 318 319 320
323 323 322 322 322 323 322 322 321 320 321 321 321 321 321 321 322 322 322 323 322 321 319 317 316 316 316 316 317 317 317 318 320 322 324 323 322 322 322 321 321 321 322 322 323 323 324 324 324 324 324 324 324 323 322 322 322 321 320 319 319 318 319
321 320 319 319 320 320 319 318 318 318 318 318 318 318 317 316 316 316 316 317 317 317 317 316 315 313 313 313 315 315 315 315 316 319 322 324 323 322 321 320 320 321 321 321 322 322 323 323 324 324 323 323 324 324 323 323 323 323 322 321 320 319 319
321 319 319 318 318 318 317 317 316 317 318 318 318 319 317 315 315 315 315 316 317 317 317 317 316 315 315 314 314 316 317 317 317 319 322 324 323 322 320 320 320 321 321 320 321 321 322 323 323 323 323 322 322 322 322 322 322 321 321 321 321 320 320
320 321 321 320 319 317 317 316 316 317 319 319 320 321 321 320 321 320 320 320 321 321 320 320 319 318 318 317 316 317 318 318 319 321 322 322 322 321 320 320 320 321 321 320 321 321 322 323 322 322 323 323 322 321 321 321 321 321 321 321 320 320 319
317 318 319 320 320 319 318 318 318 318 319 320 320 322 322 322 322 322 321 321 321 321 321 320 319 319 319 318 319 319 319 319 320 321 321 320 320 320 320 320 319 319 319 320 320 321 322 322 322 323 323 322 322 321 321 321 321 320 320 320 319 319 318
314 315 315 317 318 318 319 320 320 319 320 320 320 321 321 320 320 319 319 319 319 319 319 318 318 318 318 318 318 318 318 319 319 320 319 319 319 319 318 318 318 318 319 319 320 320 320 320 321 321 321 321 321 320 319 320 320 319 319 318 318 317 317
312 313 314 315 315 316 317 318 319 319 319 319 319 319 319 319 318 317 316 317 316 316 316 316 315 316 316 316 316 316 317 317 317 317 318 319 319 318 317 317 317 318 318 319 319 318 317 317 318 318 318 319 320 320 319 319 319 318 318 317 316 316 315
310 311 312 313 313 313 314 315 317 317 316 316 317 316 315 315 315 314 313 313 312 311 311 311 311 311 312 313 313 314 314 314 313 314 315 316 316 317 318 317 316 315 315 315 314 312 311 312 314 315 316 317 318 319 319 319 318 317 317 316 316 316 314
307 308 309 310 311 311 312 313 314 314 314 314 314 313 313 312 311 310 308 307 306 306 305 305 306 306 307 307 308 308 308 308 309 311 312 313 312 314 316 315 313 312 312 311 310 309 308 308 309 311 313 315 317 318 319 318 317 317 316 316 316 315 315
304 305 306 307 307 308 309 309 310 311 312 312 312 312 312 311 310 308 306 305 305 306 306 305 305 304 304 303 303 304 304 304 305 307 309 309 308 309 311 311 310 310 310 309 308 308 308 308 308 308 308 310 312 315 317 318 318 316 316 315 315 315 315
302 303 303 304 304 304 305 305 306 307 309 309 310 311 311 311 310 310 309 308 308 308 308 306 305 304 303 301 300 301 301 301 302 303 304 305 305 305 306 306 306 306 305 304 304 305 306 307 307 308 308 307 308 309 313 316 317 316 315 315 314 314 314

ECMWFFLT1_925_thetae_084.txt.gz
Theta_e
333 334 334 334 334 335 335 335 335 335 335 335 335 335 335 334 334 334 333 333 333 333 333 333 333 333 333 332 332 332 332 332 333 333 332 331 331 331 331 331 332 331 329 328 328 329 330 331 330 329 329 329 329 329 329 329 328 328 328 328 328 328 328
332 333 334 334 334 334 333 333 334 335 335 335 336 335 334 334 334 334 333 333 333 333 333 333 334 333 333 333 333 333 332 333 333 333 332 331 331 331 332 332 332 330 329 329 329 328 329 330 331 329 328 328 329 329 329 329 329 328 328 329 328 328 328
330 331 333 334 334 333 333 332 332 334 335 335 335 335 334 334 334 333 333 333 333 334 334 333 333 333 333 333 334 333 332 332 333 333 332 331 331 331 331 332 331 330 329 329 328 328 328 329 330 329 328 328 328 328 329 329 329 328 328 328 328 329 328
328 330 333 333 333 333 333 333 332 334 335 335 335 335 334 333 333 333 333 333 334 334 334 334 333 333 333 333 333 333 332 332 332 332 332 332 331 331 331 332 331 330 330 329 328 328 328 327 329 329 328 328 328 328 328 328 328 328 328 328 328 328 328
329 330 332 332 333 333 333 334 333 334 335 334 335 334 333 333 333 333 333 333 334 334 334 334 334 333 333 333 332 332 332 332 331 332 332 332 332 331 331 331 331 330 330 330 329 328 328 328 328 328 328 328 327 327 327 328 328 328 327 327 327 327 327
331 331 332 332 333 333 333 334 333 334 334 333 333 333 333 333 333 333 333 333 334 334 333 334 334 333 333 332 332 332 332 331 331 331 331 331 331 331 331 331 331 331 330 330 329 329 328 328 327 327 327 327 327 327 327 327 327 327 327 327 326 326 327
333 332 332 333 333 333 333 334 333 333 333 333 332 333 333 333 333 333 333 333 333 332 332 333 333 333 332 332 332 331 331 331 331 331 332 332 331 331 331 331 330 330 330 330 330 329 328 328 327 327 327 327 327 327 326 326 326 326 326 326 327 326 326
333 333 333 333 333 332 333 334 334 333 333 333 332 332 333 333 333 332 332 331 331 331 331 331 332 332 332 331 330 329 330 331 331 331 333 333 332 330 330 331 330 329 329 330 330 329 329 328 328 328 327 327 327 326 325 326 326 326 326 326 326 325 325
333 333 333 333 332 332 333 333 334 333 332 332 332 332 332 332 332 331 331 330 330 330 329 329 330 330 329 328 329 329 329 331 331 332 333 333 332 331 331 331 330 329 329 330 330 329 329 328 328 328 327 327 327 327 325 326 325 325 326 325 324 324 324
333 332 332 333 332 331 332 333 333 332 332 332 332 332 332 332 331 330 329 329 329 328 328 329 329 328 328 327 328 329 330 331 332 333 333 332 331 332 332 331 330 330 330 330 329 328 329 329 328 328 328 327 326 326 326 327 325 323 325 324 322 323 324
332 332 332 332 331 330 331 332 332 332 332 332 332 331 331 331 330 329 328 328 327 327 327 328 328 328 328 328 328 329 330 331 332 332 332 331 330 332 332 331 331 330 331 329 328 328 328 329 328 328 328 327 326 325 325 326 325 324 324 323 322 322 323
332 332 333 332 332 331 331 330 331 332 332 332 331 330 329 329 329 328 327 327 327 326 326 326 327 328 328 328 328 329 330 331 332 330 330 330 329 330 331 331 330 329 329 328 328 328 328 329 328 328 328 326 326 325 324 324 325 324 324 323 322 322 322
332 333 333 333 332 331 330 329 331 332 332 331 330 329 328 327 327 327 327 327 326 325 325 326 326 326 326 327 328 328 329 330 330 329 329 329 329 329 329 329 328 328 328 327 327 327 327 328 328 328 328 327 325 325 324 324 324 323 324 323 322 322 321
333 333 332 332 331 331 330 329 330 332 331 330 330 329 328 327 327 326 326 325 325 325 326 326 325 325 326 327 327 327 327 327 328 328 328 329 330 329 328 328 328 328 328 328 328 328 327 327 327 327 327 327 326 325 324 324 323 322 323 323 322 322 321
333 332 331 331 331 331 330 329 329 331 330 329 329 327 327 327 326 325 324 324 325 325 326 326 325 326 326 326 325 325 325 325 326 326 326 328 330 329 328 328 328 328 327 327 327 327 326 326 327 327 327 326 325 325 324 323 323 321 321 321 321 321 320
332 330 330 331 330 329 330 328 329 330 328 327 327 326 326 326 325 324 324 325 325 324 325 325 325 325 325 324 324 323 323 323 324 324 325 327 329 329 329 328 328 328 327 327 327 326 325 325 325 326 326 326 325 324 323 322 322 322 320 319 320 321 320
331 330 330 330 329 328 329 328 328 328 327 326 326 326 325 324 323 324 325 324 323 323 324 324 324 323 322 322 322 320 320 321 322 322 323 326 328 329 329 329 329 328 328 328 327 325 323 322 321 322 323 323 323 323 323 322 322 322 320 319 319 320 320
330 329 329 328 328 328 328 328 328 327 327 326 326 325 323 323 323 325 325 323 323 323 322 323 323 321 320 320 319 319 319 319 321 322 324 326 327 327 329 329 328 329 328 328 325 322 321 321 320 320 320 321 322 321 322 322 321 321 321 320 319 318 319
329 329 328 328 328 328 328 328 327 327 327 326 325 323 322 323 323 324 324 323 322 322 322 322 322 321 319 319 319 319 319 320 321 323 324 325 326 328 329 329 328 328 327 325 323 321 320 319 319 319 319 320 320 320 320 320 319 320 320 320 319 317 317
327 328 328 327 327 328 328 327 327 327 326 326 323 322 322 323 323 323 323 323 322 322 322 321 321 321 320 319 319 320 320 320 321 323 324 325 327 328 328 327 327 326 324 322 321 321 320 320 319 319 319 318 318 319 319 317 317 318 319 318 317 316 315
326 327 327 326 326 327 328 327 326 326 326 325 322 322 322 322 323 322 322 323 323 323 322 321 320 320 319 319 319 320 321 322 322 323 325 326 327 326 326 325 324 322 322 322 321 321 321 320 320 320 319 319 319 318 317 316 316 316 317 316 315 314 312
326 326 326 325 326 327 327 327 326 326 326 324 322 322 322 321 321 321 321 321 323 323 322 320 318 317 318 319 319 319 321 321 322 323 324 325 325 324 323 322 322 321 321 320 320 321 320 320 320 320 320 320 320 319 319 318 317 316 314 313 313 312 311
327 326 325 325 326 325 326 326 325 325 325 323 322 322 321 319 319 319 319 320 322 322 321 319 317 317 319 319 320 321 321 321 320 322 323 323 322 321 321 321 320 320 320 320 319 319 319 319 319 319 319 320 320 320 320 320 320 318 316 314 313 312 311
327 325 325 326 325 324 325 326 325 325 324 322 322 322 320 319 318 318 319 320 320 320 319 318 318 319 320 320 320 322 322 322 322 321 322 322 321 321 321 320 320 320 320 320 319 319 318 318 318 318 318 318 318 319 318 318 319 319 319 318 318 317 315
326 326 325 325 324 323 324 325 325 324 323 322 322 321 320 319 319 319 319 319 319 320 320 320 321 321 321 320 320 321 322 322 322 322 322 322 322 322 321 321 321 320 320 320 319 319 319 319 318 318 318 317 318 318 318 318 317 317 317 317 318 318 319
324 325 325 324 323 323 323 323 324 323 323 322 321 320 319 318 318 319 319 319 319 320 320 320 320 321 321 322 322 323 322 322 322 322 322 321 321 321 321 321 321 320 320 320 320 320 320 320 320 320 320 320 320 319 319 320 320 320 320 319 318 318 319
322 322 323 323 323 322 322 322 321 322 321 320 320 319 318 318 318 318 318 318 318 318 318 318 318 318 319 319 320 320 320 321 321 320 320 320 320 320 321 321 320 320 320 320 320 320 320 320 320 320 321 322 320 319 320 321 321 322 322 322 321 321 320
320 320 321 321 321 320 321 321 321 321 320 320 319 319 318 318 317 317 317 317 317 316 316 316 315 315 316 317 317 315 314 315 316 316 318 320 320 320 320 320 320 320 320 320 320 320 320 320 320 320 320 321 321 320 320 321 321 321 321 321 321 321 320
318 319 319 320 319 318 319 319 320 320 320 319 318 317 317 316 316 315 315 316 316 316 315 315 313 314 316 318 318 316 314 315 317 319 320 321 321 320 320 319 319 319 320 320 320 320 320 320 320 320 321 321 322 321 321 322 321 321 321 320 320 320 320
318 317 318 318 318 317 317 318 318 318 318 318 317 316 315 314 314 314 314 314 315 315 316 316 315 315 316 318 317 317 318 319 320 320 320 320 320 320 319 319 319 319 319 319 320 320 320 321 321 321 321 321 321 321 321 321 321 321 320 320 319 319 319
317 317 317 317 317 317 317 316 316 316 316 317 317 316 315 314 313 313 314 314 315 316 316 317 317 317 317 317 317 318 319 319 319 319 319 319 319 319 319 319 318 318 318 318 318 318 318 319 319 320 320 320 320 320 320 320 320 320 319 319 319 319 319
317 317 317 317 317 317 316 316 316 316 316 316 316 316 316 315 314 314 314 314 313 314 315 315 316 317 318 318 318 319 318 319 319 318 317 317 317 316 316 315 315 314 314 314 313 313 312 312 313 314 315 316 316 317 318 318 318 318 318 318 318 318 317
316 318 318 318 318 317 317 316 316 316 316 317 316 315 315 314 312 311 310 309 308 309 310 311 313 315 316 317 318 318 319 319 318 316 314 314 313 312 311 311 311 310 310 310 310 309 309 309 308 309 309 310 311 312 313 314 315 316 317 318 318 317 317
314 315 317 318 318 318 318 317 317 317 317 316 314 311 309 308 306 304 303 303 303 304 305 306 307 309 312 314 315 316 317 317 317 315 313 311 310 309 309 308 308 308 308 308 307 306 306 305 304 304 305 306 307 307 307 308 309 311 313 316 317 317 316
311 312 314 316 317 316 316 316 315 314 314 313 310 307 305 304 302 300 298 298 299 299 300 301 302 303 305 308 310 312 314 314 314 313 312 310 309 309 308 307 306 306 305 304 302 300 300 300 301 301 302 303 304 305 305 306 307 309 311 313 315 316 315
308 309 311 313 314 313 313 312 311 310 310 309 307 304 303 302 301 299 297 297 297 296 297 297 297 298 299 301 304 306 308 308 309 310 310 308 306 304 303 302 301 300 299 298 297 298 299 301 301 302 302 302 303 303 304 306 308 309 311 311 312 312 312
305 306 308 310 311 311 311 310 309 307 306 305 304 303 302 301 300 298 297 296 296 296 296 296 296 296 296 297 298 299 301 302 302 303 303 302 300 298 297 297 297 297 298 298 299 300 302 303 303 303 303 303 303 304 303 304 305 306 307 308 308 309 309

ECMWFFLT1_925_thetae_087.txt.gz
Theta_e
333 333 333 332 333 333 332 333 335 334 333 333 333 334 334 334 334 335 335 334 334 334 332 332 332 333 333 333 332 331 331 331 330 331 332 331 330 330 330 330 331 331 329 327 327 328 329 330 329 329 329 329 329 328 328 328 329 329 329 328 328 329 328
333 333 332 331 332 332 333 332 333 334 333 333 333 334 334 334 333 334 334 334 333 333 332 332 332 333 333 333 332 331 331 331 331 331 332 332 331 330 330 331 331 330 328 328 327 327 328 329 331 329 328 328 328 328 329 328 329 328 328 328 328 328 328
333 333 332 331 332 333 333 332 331 332 332 332 334 334 334 334 334 333 334 334 333 332 332 332 332 333 333 332 332 331 331 331 332 332 332 332 332 331 331 331 330 329 328 327 327 328 327 328 330 329 328 328 328 328 329 329 328 328 328 328 328 328 328
332 332 331 330 332 333 333 332 331 331 332 333 335 334 334 334 334 333 333 333 333 332 332 333 333 333 332 332 332 332 332 332 332 332 332 332 332 331 331 331 331 329 329 328 327 328 327 326 328 329 328 328 328 328 329 329 329 328 328 328 328 328 328
332 331 331 330 331 333 333 333 331 331 332 333 334 334 334 334 334 334 333 333 333 333 333 333 333 333 333 332 333 333 333 332 332 332 333 332 332 331 331 331 331 330 329 328 328 328 327 327 327 328 328 328 328 328 328 328 328 328 328 328 328 327 328
332 330 330 330 331 333 333 332 332 331 332 333 334 334 334 334 333 333 333 333 333 333 333 333 333 333 333 333 333 333 333 332 332 332 332 333 332 331 331 331 331 331 329 329 328 328 328 327 327 327 328 327 327 327 327 328 328 328 327 327 327 327 327
331 330 330 329 330 332 332 331 331 332 333 333 334 334 334 334 333 333 333 333 333 333 333 333 333 333 333 333 333 333 332 332 331 332 332 332 332 331 331 331 331 331 330 329 329 328 328 327 326 326 327 327 327 326 326 327 327 327 326 326 326 326 326
332 330 330 330 330 331 331 331 331 332 333 333 334 334 333 333 333 332 333 332 333 334 334 333 333 333 333 333 332 332 332 332 331 331 331 331 332 331 331 331 331 331 330 329 330 329 328 327 327 326 326 327 327 327 326 326 326 326 326 326 325 325 325
332 331 331 330 330 331 332 332 332 332 333 333 333 333 333 333 333 333 333 332 333 334 333 333 333 333 333 332 332 332 332 331 331 330 331 331 331 331 331 330 330 330 330 329 329 329 329 328 327 327 326 326 327 327 326 326 326 325 325 325 325 325 324
332 332 331 331 331 332 332 332 332 332 333 332 333 332 332 332 333 333 333 332 333 333 332 333 333 332 333 332 331 331 331 331 330 330 331 332 332 331 330 330 330 330 329 329 329 329 329 328 327 327 326 326 326 326 327 328 326 324 324 325 325 324 323
332 332 332 332 332 332 332 332 333 333 333 332 332 331 332 332 332 332 332 331 332 331 331 331 331 331 331 330 329 329 329 330 330 331 332 332 332 331 331 331 331 330 329 329 330 329 329 329 328 327 327 326 325 325 325 326 326 324 324 325 325 323 322
332 332 332 332 332 332 332 332 332 333 333 332 332 331 331 332 331 331 330 330 330 329 329 329 329 329 328 327 328 329 329 330 331 332 332 332 332 331 331 331 331 330 330 330 330 329 328 329 328 328 327 327 325 324 324 325 326 325 324 324 325 323 321
331 332 332 332 332 332 332 332 332 333 332 332 331 331 331 331 330 329 329 329 329 328 327 328 328 327 327 327 328 329 330 331 332 332 331 331 331 330 331 331 331 330 330 330 330 329 328 328 328 328 327 327 326 325 324 324 325 324 323 324 324 323 322
330 331 331 332 332 331 331 331 332 332 332 332 331 330 331 331 329 328 327 328 327 326 326 327 328 327 327 328 328 329 330 331 331 330 330 330 329 329 330 330 330 329 329 329 328 328 328 328 328 328 327 327 326 325 325 324 323 322 323 324 324 323 322
330 331 331 331 331 331 331 331 331 331 331 331 331 328 329 330 328 327 327 327 326 325 325 326 327 327 327 328 328 329 330 330 329 328 329 329 329 329 329 328 328 328 328 328 327 327 327 327 327 327 327 328 327 326 325 324 323 322 322 323 323 322 321
330 330 331 331 331 331 331 330 330 331 331 330 329 327 327 328 327 327 327 326 325 325 325 325 325 326 327 327 328 328 328 327 327 327 328 328 329 329 328 327 327 328 328 327 327 327 326 326 326 326 326 327 327 327 326 325 324 323 322 322 322 322 321
329 330 330 331 331 331 331 330 330 331 330 328 327 327 327 327 327 326 325 325 325 325 325 325 325 325 326 326 325 326 325 325 325 326 326 327 329 328 328 327 328 328 328 327 327 326 325 324 324 325 326 327 327 326 326 325 324 323 322 321 321 321 322
328 328 328 328 329 329 328 329 330 330 329 328 327 327 327 327 326 325 324 324 324 325 325 325 325 325 325 324 323 323 323 322 323 324 324 325 328 328 328 328 328 328 327 326 326 325 325 324 323 323 323 325 326 326 326 325 324 322 321 321 321 321 321
328 328 327 326 326 326 326 327 328 328 327 328 327 326 326 326 325 324 324 324 324 324 325 325 325 324 323 323 322 321 320 319 320 322 322 323 326 328 328 328 328 328 327 326 324 322 321 322 321 320 320 321 324 325 325 324 324 322 321 321 321 320 320
328 328 328 327 327 327 327 327 326 325 325 326 326 326 325 325 324 324 324 323 323 323 324 324 323 321 320 320 320 319 318 318 319 320 322 323 326 327 328 329 328 327 326 324 322 320 319 319 319 319 319 319 321 322 322 322 322 321 321 320 320 319 319
328 327 327 327 327 327 326 326 326 324 324 325 326 325 324 323 324 324 324 322 322 322 322 322 321 320 318 318 319 319 319 319 320 322 323 325 326 327 327 327 326 325 322 321 320 320 319 319 319 318 318 318 319 319 320 319 319 319 319 319 319 318 317
327 327 327 326 326 326 324 325 325 324 323 325 325 323 322 323 324 324 323 322 322 322 321 321 321 320 320 318 319 320 320 320 321 324 325 326 325 325 325 324 323 322 321 320 320 320 320 319 319 318 318 318 318 318 318 317 316 317 318 318 317 316 315
326 326 327 326 325 325 324 325 325 324 324 325 324 321 322 324 324 324 323 323 322 322 321 321 321 320 319 318 319 321 321 321 322 324 325 324 323 322 321 320 320 320 320 320 320 320 319 319 319 319 319 319 319 319 318 317 316 315 315 315 314 313 312
325 327 327 325 324 325 325 325 324 324 324 324 322 321 322 323 323 323 323 322 322 322 321 321 319 318 318 318 319 321 322 322 323 324 324 322 320 319 319 319 319 319 319 319 319 318 318 318 318 318 318 319 319 319 319 319 319 318 316 315 314 313 312
325 326 326 325 324 324 324 324 323 323 323 323 322 321 321 321 322 322 322 322 322 322 321 319 317 317 319 319 319 320 321 322 323 322 321 320 320 319 320 320 320 320 319 320 320 320 320 319 319 318 318 317 318 318 318 319 319 319 318 317 317 316 316
325 325 325 324 324 324 323 322 322 323 322 322 321 320 319 320 320 320 320 320 321 320 319 318 318 319 321 321 320 320 321 321 321 321 320 320 320 320 320 320 320 320 320 320 320 320 320 320 320 320 320 319 319 319 319 318 318 318 318 318 318 318 317
323 323 323 323 322 322 321 321 321 321 321 320 319 318 317 318 318 318 319 320 320 320 320 320 320 321 321 322 322 321 321 321 321 320 320 319 319 319 320 320 320 320 320 320 319 320 320 320 320 320 321 321 321 321 321 321 321 321 321 320 321 320 319
320 321 321 321 321 320 320 320 318 318 318 318 318 317 316 317 317 318 318 319 320 321 322 322 321 321 322 322 322 321 321 320 319 318 318 318 318 319 319 320 320 320 319 319 319 319 319 319 320 320 321 321 321 321 322 322 322 322 321 321 321 321 320
318 319 319 320 320 319 318 318 316 314 314 315 315 316 316 316 316 316 316 317 319 319 320 321 320 319 320 320 321 320 318 317 316 316 318 319 318 319 319 319 319 319 319 319 319 319 319 319 320 320 320 321 321 320 321 321 321 321 320 320 320 320 319
317 317 318 318 317 317 316 315 314 312 310 311 312 313 314 315 315 315 315 316 316 316 316 317 318 317 316 316 317 316 315 315 315 316 319 320 319 319 319 319 319 319 319 318 318 318 319 320 320 320 320 321 321 321 320 320 320 320 320 319 319 319 318
316 316 316 315 315 315 314 313 312 312 311 311 311 311 312 314 314 315 315 315 315 315 315 316 318 317 316 316 316 316 315 315 315 316 318 319 319 319 319 318 318 318 317 317 317 317 318 318 318 318 318 318 318 318 319 319 319 318 318 318 318 318 318
317 316 315 315 314 315 315 314 313 312 312 311 311 311 312 313 313 314 314 314 315 315 315 316 317 317 317 316 317 316 316 316 317 317 317 317 317 316 316 316 315 315 315 315 314 314 314 314 315 314 314 314 313 313 313 314 314 314 315 316 317 317 317
316 316 316 315 315 314 315 315 314 313 312 311 311 311 312 312 312 312 313 313 314 315 315 316 317 318 318 317 316 317 317 317 317 316 314 314 313 312 312 312 312 312 312 311 311 310 309 309 310 309 310 310 309 308 307 308 309 309 310 313 315 316 317
315 315 315 315 315 313 312 313 314 314 313 311 309 309 309 309 309 308 309 311 311 311 312 313 315 316 317 318 317 317 318 317 315 314 312 311 311 310 310 310 311 310 310 310 309 307 305 304 304 303 303 304 304 305 305 306 307 308 309 311 313 314 315
313 313 313 314 314 312 309 309 310 311 310 309 307 306 305 306 305 304 305 306 306 306 307 310 312 314 315 316 317 317 316 314 313 313 312 311 310 311 310 310 310 308 307 306 304 302 300 300 300 300 301 302 303 304 306 307 307 308 308 309 310 310 311
312 311 310 310 310 309 307 305 305 307 307 307 306 303 301 302 302 302 302 302 301 301 302 304 307 309 311 312 313 314 313 312 311 312 313 312 311 310 309 307 305 303 301 299 299 299 299 300 301 301 302 302 303 303 303 303 303 303 303 303 303 304 306
309 309 308 308 307 306 305 304 303 303 304 304 303 301 299 299 300 299 299 298 298 297 298 298 299 302 304 306 307 308 309 309 309 309 310 309 306 304 301 300 299 299 298 298 299 300 301 302 302 303 303 302 302 301 301 301 300 300 299 299 300 302 304